Location: Carson
(33.8314°N, 118.2820°W)
Time: 12:59:05
(UTC+00:00)

BREEZE-M DEB (TANK) - Pass Details

Date: 23 November 2020
Orbit: 357 x 16370 km, 49.4° (Epoch: 21 January)

Event Time Altitude Azimuth Distance (km) Brightness Sun altitude
Exits shadow 12:47:24 32° 179° (S) 760 3.1 -21.8°
Maximum altitude 12:48:18 45° 130° (SE) 671 3.1 -21.6°
Drops below altitude 10° 12:53:08 10° 56° (ENE) 2,718 6.4 -20.6°
Sets 12:57:43 0° 52° (NE) 4,924 7.7 -19.7°
